Hourly Weather Kitaevo

Today, 27 July, Tuesday

Time Temperature Precipitation Wind Pressure Humidity
00:00 +19°C° 0.2 mm 1 mps 747 mmHg 83%
01:00 +18°C° 0.2 mm 1 mps 747 mmHg 84%
02:00 +18°C° 0.2 mm 1 mps 747 mmHg 86%
03:00 +18°C° 0.6 mm 1 mps 747 mmHg 86%
04:00 +18°C° 0.6 mm 1 mps 748 mmHg 86%
05:00 +16°C° 0.6 mm 0 mps 748 mmHg 86%
06:00 +20°C° 0.2 mm 1 mps 747 mmHg 80%
07:00 +22°C° 0.2 mm 1 mps 747 mmHg 75%
08:00 +24°C° 0.2 mm 2 mps 747 mmHg 69%
09:00 +25°C° 0 mm 2 mps 747 mmHg 62%
10:00 +27°C° 0 mm 2 mps 747 mmHg 55%
11:00 +28°C° 0 mm 2 mps 747 mmHg 48%
12:00 +29°C° 0 mm 2 mps 747 mmHg 46%
13:00 +29°C° 0 mm 2 mps 746 mmHg 43%
14:00 +30°C° 0 mm 2 mps 746 mmHg 41%
15:00 +29°C° 0 mm 2 mps 746 mmHg 45%
16:00 +29°C° 0 mm 2 mps 745 mmHg 50%
17:00 +28°C° 0 mm 2 mps 745 mmHg 54%
18:00 +27°C° 0 mm 2 mps 745 mmHg 56%
19:00 +25°C° 0 mm 1 mps 745 mmHg 58%
20:00 +24°C° 0 mm 1 mps 745 mmHg 60%
21:00 +23°C° 0 mm 1 mps 745 mmHg 60%
22:00 +23°C° 0 mm 2 mps 745 mmHg 60%
23:00 +23°C° 0 mm 2 mps 745 mmHg 61%

Tomorrow, 28 July, Wednesday

Time Temperature Precipitation Wind Pressure Humidity
00:00 +21°C° 0 mm 2 mps 744 mmHg 61%
01:00 +20°C° 0 mm 2 mps 744 mmHg 62%
02:00 +20°C° 0 mm 2 mps 744 mmHg 63%
03:00 +20°C° 0 mm 2 mps 744 mmHg 63%
04:00 +20°C° 0 mm 2 mps 743 mmHg 62%
05:00 +20°C° 0 mm 2 mps 743 mmHg 62%
06:00 +20°C° 0.1 mm 2 mps 743 mmHg 66%
07:00 +20°C° 0.1 mm 2 mps 743 mmHg 70%
08:00 +20°C° 0.1 mm 3 mps 743 mmHg 74%
09:00 +20°C° 0.7 mm 3 mps 743 mmHg 80%
10:00 +19°C° 0.7 mm 4 mps 742 mmHg 85%
11:00 +19°C° 0.7 mm 4 mps 742 mmHg 90%
12:00 +20°C° 0.2 mm 4 mps 742 mmHg 84%
13:00 +21°C° 0.2 mm 5 mps 741 mmHg 77%
14:00 +22°C° 0.2 mm 5 mps 741 mmHg 71%
15:00 +22°C° 0.8 mm 5 mps 741 mmHg 76%
16:00 +22°C° 0.8 mm 5 mps 740 mmHg 80%
17:00 +22°C° 0.8 mm 4 mps 739 mmHg 85%
18:00 +21°C° 0.4 mm 4 mps 739 mmHg 88%
19:00 +21°C° 0.4 mm 4 mps 739 mmHg 91%
20:00 +20°C° 0.4 mm 4 mps 739 mmHg 94%
21:00 +19°C° 0 mm 4 mps 739 mmHg 95%
22:00 +19°C° 0 mm 3 mps 739 mmHg 95%
23:00 +19°C° 0 mm 3 mps 738 mmHg 96%

Day after tomorrow, 29 July, Thursday

Time Temperature Precipitation Wind Pressure Humidity
00:00 +18°C° 0 mm 3 mps 738 mmHg 96%
01:00 +18°C° 0 mm 3 mps 738 mmHg 96%
02:00 +18°C° 0 mm 3 mps 738 mmHg 96%
03:00 +18°C° 0 mm 3 mps 738 mmHg 96%
04:00 +18°C° 0 mm 2 mps 738 mmHg 95%
05:00 +18°C° 0 mm 2 mps 738 mmHg 95%
06:00 +20°C° 0 mm 2 mps 738 mmHg 88%
07:00 +23°C° 0 mm 2 mps 738 mmHg 81%
08:00 +25°C° 0 mm 2 mps 738 mmHg 73%
09:00 +26°C° 0 mm 2 mps 738 mmHg 68%
10:00 +27°C° 0 mm 3 mps 738 mmHg 62%
11:00 +29°C° 0 mm 3 mps 738 mmHg 56%
12:00 +29°C° 0 mm 3 mps 738 mmHg 53%
13:00 +30°C° 0 mm 3 mps 738 mmHg 51%
14:00 +30°C° 0 mm 3 mps 738 mmHg 48%
15:00 +28°C° 0.4 mm 3 mps 738 mmHg 57%
16:00 +26°C° 0.4 mm 3 mps 737 mmHg 66%
17:00 +25°C° 0.4 mm 3 mps 737 mmHg 75%
18:00 +22°C° 0.7 mm 3 mps 737 mmHg 78%
19:00 +21°C° 0.7 mm 2 mps 737 mmHg 82%
20:00 +20°C° 0.7 mm 2 mps 737 mmHg 86%
21:00 +20°C° 0.3 mm 2 mps 737 mmHg 88%
22:00 +20°C° 0.3 mm 1 mps 737 mmHg 91%
23:00 +20°C° 0.3 mm 1 mps 737 mmHg 93%

30 July, Friday

Time Temperature Precipitation Wind Pressure Humidity
00:00 +20°C° 0.3 mm 1 mps 737 mmHg 94%
01:00 +18°C° 0.3 mm 2 mps 737 mmHg 94%
02:00 +18°C° 0.3 mm 2 mps 737 mmHg 95%
03:00 +18°C° 0 mm 2 mps 737 mmHg 95%
04:00 +18°C° 0 mm 2 mps 737 mmHg 95%
05:00 +18°C° 0 mm 2 mps 738 mmHg 94%
06:00 +19°C° 0 mm 2 mps 738 mmHg 88%
07:00 +21°C° 0 mm 2 mps 738 mmHg 82%
08:00 +23°C° 0 mm 2 mps 738 mmHg 76%
09:00 +24°C° 0 mm 2 mps 738 mmHg 69%
10:00 +26°C° 0 mm 2 mps 738 mmHg 62%
11:00 +27°C° 0 mm 2 mps 738 mmHg 56%
12:00 +28°C° 0 mm 3 mps 738 mmHg 55%
13:00 +28°C° 0 mm 3 mps 738 mmHg 54%
14:00 +28°C° 0 mm 4 mps 738 mmHg 53%
15:00 +28°C° 0 mm 4 mps 738 mmHg 55%
16:00 +27°C° 0 mm 3 mps 738 mmHg 57%
17:00 +27°C° 0 mm 3 mps 738 mmHg 59%
18:00 +25°C° 0 mm 3 mps 738 mmHg 62%
19:00 +22°C° 0 mm 3 mps 738 mmHg 65%
20:00 +21°C° 0 mm 3 mps 738 mmHg 68%
21:00 +20°C° 0 mm 2 mps 738 mmHg 69%
22:00 +19°C° 0 mm 2 mps 738 mmHg 70%
23:00 +19°C° 0 mm 2 mps 738 mmHg 71%

31 July, Saturday

Time Temperature Precipitation Wind Pressure Humidity
00:00 +19°C° 0 mm 2 mps 738 mmHg 72%
01:00 +18°C° 0 mm 2 mps 738 mmHg 72%
02:00 +18°C° 0 mm 3 mps 738 mmHg 73%
03:00 +18°C° 0 mm 3 mps 738 mmHg 74%
04:00 +18°C° 0 mm 3 mps 738 mmHg 75%
05:00 +18°C° 0 mm 3 mps 738 mmHg 75%
06:00 +20°C° 0 mm 3 mps 738 mmHg 71%
07:00 +22°C° 0 mm 3 mps 738 mmHg 66%
08:00 +23°C° 0 mm 4 mps 738 mmHg 62%
09:00 +26°C° 0 mm 4 mps 738 mmHg 57%
10:00 +27°C° 0 mm 5 mps 738 mmHg 53%
11:00 +29°C° 0 mm 5 mps 738 mmHg 49%
12:00 +28°C° 0 mm 5 mps 738 mmHg 53%
13:00 +27°C° 0 mm 4 mps 738 mmHg 56%
14:00 +27°C° 0 mm 3 mps 738 mmHg 60%
15:00 +27°C° 0 mm 2 mps 738 mmHg 61%
16:00 +27°C° 0 mm 2 mps 738 mmHg 63%
17:00 +27°C° 0 mm 1 mps 738 mmHg 64%
18:00 +26°C° 0 mm 1 mps 737 mmHg 67%
19:00 +24°C° 0 mm 2 mps 737 mmHg 70%
20:00 +23°C° 0 mm 2 mps 737 mmHg 73%
21:00 +21°C° 0.1 mm 2 mps 737 mmHg 75%
22:00 +21°C° 0.1 mm 2 mps 736 mmHg 77%
23:00 +20°C° 0.1 mm 2 mps 736 mmHg 78%

1 August, Sunday

Time Temperature Precipitation Wind Pressure Humidity
00:00 +20°C° 0.1 mm 3 mps 736 mmHg 78%
01:00 +20°C° 0.1 mm 3 mps 736 mmHg 77%
02:00 +20°C° 0.1 mm 3 mps 735 mmHg 76%
03:00 +19°C° 0.2 mm 3 mps 735 mmHg 79%
04:00 +19°C° 0.2 mm 3 mps 735 mmHg 83%
05:00 +19°C° 0.2 mm 3 mps 734 mmHg 86%
06:00 +20°C° 0 mm 4 mps 735 mmHg 86%
07:00 +21°C° 0 mm 4 mps 735 mmHg 85%
08:00 +22°C° 0 mm 5 mps 735 mmHg 84%
09:00 +23°C° 0.1 mm 5 mps 735 mmHg 80%
10:00 +25°C° 0.1 mm 5 mps 736 mmHg 75%
11:00 +26°C° 0.1 mm 5 mps 736 mmHg 70%
12:00 +27°C° 0 mm 5 mps 736 mmHg 64%
13:00 +28°C° 0 mm 5 mps 737 mmHg 58%
14:00 +29°C° 0 mm 5 mps 737 mmHg 53%
15:00 +28°C° 0 mm 5 mps 737 mmHg 54%
16:00 +28°C° 0 mm 4 mps 737 mmHg 55%
17:00 +28°C° 0 mm 4 mps 737 mmHg 57%
18:00 +26°C° 0.1 mm 3 mps 737 mmHg 63%
19:00 +25°C° 0.1 mm 3 mps 737 mmHg 68%
20:00 +23°C° 0.1 mm 2 mps 737 mmHg 74%
21:00 +23°C° 0 mm 2 mps 738 mmHg 77%
22:00 +21°C° 0 mm 2 mps 738 mmHg 80%
23:00 +20°C° 0 mm 2 mps 738 mmHg 83%
Show more